Sigfox identifier Datetime Temperature Humidity SNR
003A586A 2019-04-23 15:03:17 16 32 22.8
003A586A 2019-04-23 14:31:41 16 32 22.5
003A586A 2019-04-23 14:00:07 15.9 32 22.3
003A586A 2019-04-23 13:28:29 15.8 32 22.2
003A586A 2019-04-23 12:56:51 15.8 32 21.7
003A586A 2019-04-23 12:25:15 15.8 32 21.3
003A586A 2019-04-23 11:53:38 15.8 32 21.3
003A586A 2019-04-23 11:22:02 15.7 32 20.3
003A586A 2019-04-23 10:50:26 15.6 32 20
003A586A 2019-04-23 10:18:49 15.6 32 19.4
003A586A 2019-04-23 09:47:13 15.6 32 19.4
003A586A 2019-04-23 09:15:35 15.7 32 18.5
003A586A 2019-04-23 08:43:58 15.7 32 17.3
003A586A 2019-04-23 08:12:21 15.7 32 16.9
003A586A 2019-04-23 07:40:44 15.7 32 17
003A586A 2019-04-23 07:09:07 15.6 32 17.1
003A586A 2019-04-23 06:37:31 15.6 32 17.1
003A586A 2019-04-23 06:05:54 15.7 32 17.1
003A586A 2019-04-23 05:34:17 15.6 32 17.1
003A586A 2019-04-23 05:02:40 15.7 32 17.1
003A586A 2019-04-23 04:31:03 15.8 32 17
003A586A 2019-04-23 03:59:26 15.8 32 17
003A586A 2019-04-23 03:27:49 15.7 32 17.1
003A586A 2019-04-23 02:56:12 15.8 32 17.2
003A586A 2019-04-23 02:24:36 15.8 32 17.4
003A586A 2019-04-23 01:52:58 15.8 32 17.4
003A586A 2019-04-23 01:21:20 15.8 32 17.3
003A586A 2019-04-23 00:49:45 15.8 32 17.4
003A586A 2019-04-23 00:18:10 15.8 32 17.5
003A586A 2019-04-22 23:46:32 15.8 32 17.4
003A586A 2019-04-22 23:14:56 15.8 32 17.5
003A586A 2019-04-22 22:43:20 15.8 32 17.5
003A586A 2019-04-22 22:11:44 15.8 32 17.5
003A586A 2019-04-22 21:40:09 15.8 32 17.4
003A586A 2019-04-22 21:08:34 15.9 32 17.4
003A586A 2019-04-22 20:37:00 15.9 32 17.2
003A586A 2019-04-22 20:05:25 15.9 32 17
003A586A 2019-04-22 19:33:49 15.9 31 17
003A586A 2019-04-22 19:02:13 15.9 32 16.8
003A586A 2019-04-22 18:30:37 15.8 31 16.7
003A586A 2019-04-22 17:59:02 15.8 31 16.6
003A586A 2019-04-22 17:27:26 15.8 31 16.5
003A586A 2019-04-22 16:55:50 15.8 31 16.3
003A586A 2019-04-22 16:24:14 15.8 31 16.3
003A586A 2019-04-22 15:52:38 15.8 31 16.2
003A586A 2019-04-22 15:21:03 15.8 31 16.3
003A586A 2019-04-22 14:49:27 15.8 31 16.2
003A586A 2019-04-22 14:17:51 15.7 31 16.1
003A586A 2019-04-22 13:46:16 15.7 31 16.1
003A586A 2019-04-22 13:14:41 15.7 31 15.8
003A586A 2019-04-22 12:43:05 15.6 31 15.7
003A586A 2019-04-22 12:11:28 15.6 31 15.7
003A586A 2019-04-22 11:39:52 15.7 31 15.7
003A586A 2019-04-22 11:08:17 15.6 31 15.6
003A586A 2019-04-22 10:36:41 15.6 31 15.5
003A586A 2019-04-22 10:05:05 15.6 31 15.5
003A586A 2019-04-22 09:33:29 15.6 31 15.5
003A586A 2019-04-22 09:01:52 15.6 31 15.5
003A586A 2019-04-22 08:30:16 15.6 31 15.5
003A586A 2019-04-22 07:58:39 15.6 31 15.6
003A586A 2019-04-22 07:27:02 15.6 31 15.8
003A586A 2019-04-22 06:55:27 15.6 31 16.1
003A586A 2019-04-22 06:23:51 15.6 31 16.3
003A586A 2019-04-22 05:52:18 15.6 31 16.5
003A586A 2019-04-22 05:20:42 15.6 31 16.6
003A586A 2019-04-22 04:49:05 15.6 31 16.6
003A586A 2019-04-22 04:17:32 15.6 31 16.8
003A586A 2019-04-22 03:45:52 15.6 31 16.9
003A586A 2019-04-22 03:14:14 15.6 31 17
003A586A 2019-04-22 02:42:38 15.6 31 17.1
003A586A 2019-04-22 02:11:01 15.6 31 17.2
003A586A 2019-04-22 01:39:24 15.6 31 17.3
003A586A 2019-04-22 01:07:47 15.6 31 17.3
003A586A 2019-04-22 00:36:10 15.6 31 17.3
003A586A 2019-04-22 00:04:34 15.6 31 17.4
003A586A 2019-04-21 23:32:56 15.6 31 17.5
003A586A 2019-04-21 23:01:21 15.6 31 17.6
003A586A 2019-04-21 22:29:42 15.6 31 17.6
003A586A 2019-04-21 21:58:06 15.6 31 17.6
003A586A 2019-04-21 21:26:29 15.6 31 17.6
003A586A 2019-04-21 20:54:52 15.6 31 17.7
003A586A 2019-04-21 20:23:15 15.6 31 17.5
003A586A 2019-04-21 19:51:38 15.6 31 17.5
003A586A 2019-04-21 19:20:02 15.6 31 17.4
003A586A 2019-04-21 18:48:26 15.6 31 17.3
003A586A 2019-04-21 18:16:50 15.6 31 17.1
003A586A 2019-04-21 17:45:13 15.6 31 16.9
003A586A 2019-04-21 17:13:37 15.6 30 16.8
003A586A 2019-04-21 16:42:00 15.6 30 16.6
003A586A 2019-04-21 16:10:25 15.6 30 16.6
003A586A 2019-04-21 15:38:47 15.6 30 16.5
003A586A 2019-04-21 15:07:11 15.6 30 16.4
003A586A 2019-04-21 14:35:35 15.6 30 16.2
003A586A 2019-04-21 14:04:00 15.6 30 16.2
003A586A 2019-04-21 13:32:23 15.6 30 16.2
003A586A 2019-04-21 13:00:47 15.6 30 16.2
003A586A 2019-04-21 12:29:11 15.6 30 16.1
003A586A 2019-04-21 11:57:33 15.6 30 16.1
003A586A 2019-04-21 11:25:57 15.6 30 16.2
003A586A 2019-04-21 10:54:20 15.6 30 16.1
003A586A 2019-04-21 10:22:44 15.6 30 15.9
003A586A 2019-04-21 09:51:08 15.6 30 15.9
003A586A 2019-04-21 09:19:32 15.7 30 15.9
003A586A 2019-04-21 08:47:56 15.6 30 15.9
003A586A 2019-04-21 08:16:20 15.7 30 16
003A586A 2019-04-21 07:44:44 15.7 30 15.8
003A586A 2019-04-21 07:13:08 15.7 30 16
003A586A 2019-04-21 06:41:32 15.6 30 16.1
003A586A 2019-04-21 06:09:56 15.7 30 16.2
003A586A 2019-04-21 05:38:20 15.6 30 16.3
003A586A 2019-04-21 05:06:44 15.6 30 16.3
003A586A 2019-04-21 04:35:09 15.6 30 16.4
003A586A 2019-04-21 04:03:33 15.6 30 16.5
003A586A 2019-04-21 03:31:58 15.6 30 16.5
003A586A 2019-04-21 03:00:22 15.6 30 16.5
003A586A 2019-04-21 02:28:46 15.7 30 16.5
003A586A 2019-04-21 01:57:09 15.6 30 16.6
003A586A 2019-04-21 01:25:32 15.6 30 16.6
003A586A 2019-04-21 00:53:55 15.6 30 16.6
003A586A 2019-04-21 00:22:17 15.6 30 16.6
003A586A 2019-04-20 23:50:40 15.6 30 16.6
003A586A 2019-04-20 23:19:03 15.6 30 16.6
003A586A 2019-04-20 22:47:27 15.7 30 16.7
003A586A 2019-04-20 22:15:51 15.7 30 16.6
003A586A 2019-04-20 21:44:16 15.7 30 16.6
003A586A 2019-04-20 21:12:41 15.6 30 16.6
003A586A 2019-04-20 20:41:07 15.6 30 16.6
003A586A 2019-04-20 20:09:29 15.7 30 16.6
003A586A 2019-04-20 19:37:54 15.7 30 16.6
003A586A 2019-04-20 19:06:18 15.7 30 16.6
003A586A 2019-04-20 18:34:42 15.7 30 16.7
003A586A 2019-04-20 18:03:07 15.7 30 16.7
003A586A 2019-04-20 17:31:32 15.6 30 16.5
003A586A 2019-04-20 16:59:57 15.7 30 16.5
003A586A 2019-04-20 16:28:22 15.7 30 16.5
003A586A 2019-04-20 15:56:46 15.7 30 16.7
003A586A 2019-04-20 15:25:11 15.8 29 16.7
003A586A 2019-04-20 14:53:37 15.7 29 16.8
003A586A 2019-04-20 14:22:00 15.7 29 16.9
003A586A 2019-04-20 13:50:25 15.8 29 16.9
003A586A 2019-04-20 13:18:48 15.8 29 17.1
003A586A 2019-04-20 12:47:12 15.8 29 17
003A586A 2019-04-20 12:15:37 15.8 29 17
003A586A 2019-04-20 11:44:00 15.8 29 17.1
003A586A 2019-04-20 11:12:24 15.8 29 17.2
003A586A 2019-04-20 10:40:48 15.8 29 17.2
003A586A 2019-04-20 10:09:11 15.8 29 17.2
003A586A 2019-04-20 09:37:35 15.9 29 17.2
003A586A 2019-04-20 09:05:59 15.8 29 17.3
003A586A 2019-04-20 08:34:22 15.8 29 17.4
003A586A 2019-04-20 08:02:46 15.9 29 17.5
003A586A 2019-04-20 07:31:14 15.9 29 17.6
003A586A 2019-04-20 06:59:33 16 29 17.7
003A586A 2019-04-20 06:28:00 16 29 17.8
003A586A 2019-04-20 05:56:22 16 29 17.8
003A586A 2019-04-20 05:24:45 16 29 17.8
003A586A 2019-04-20 04:53:08 16 29 17.9
003A586A 2019-04-20 04:21:32 16 29 18
003A586A 2019-04-20 03:49:55 16 29 18
003A586A 2019-04-20 03:18:19 16 29 18.1
003A586A 2019-04-20 02:46:42 16 29 18
003A586A 2019-04-20 02:15:06 16 29 17.9
003A586A 2019-04-20 01:43:31 16 29 18
003A586A 2019-04-20 01:11:55 16.1 29 18
003A586A 2019-04-20 00:40:18 16.1 29 18
003A586A 2019-04-20 00:08:42 16.2 29 18
003A586A 2019-04-19 23:37:05 16.2 29 18.1
003A586A 2019-04-19 23:05:29 16.2 29 18.1
003A586A 2019-04-19 22:33:53 16.3 29 18
003A586A 2019-04-19 22:02:17 16.2 29 17.9
003A586A 2019-04-19 21:30:40 16.3 29 17.9
003A586A 2019-04-19 20:59:03 16.3 29 17.9
003A586A 2019-04-19 20:27:26 16.3 29 17.8
003A586A 2019-04-19 19:55:49 16.3 29 17.8
003A586A 2019-04-19 19:24:13 16.2 29 17.7
003A586A 2019-04-19 18:52:36 16.2 29 17.4
003A586A 2019-04-19 18:20:58 16.2 29 17.2
003A586A 2019-04-19 17:49:22 16.2 29 17.1
003A586A 2019-04-19 17:17:45 16 29 17
003A586A 2019-04-19 16:46:09 16 29 17
003A586A 2019-04-19 16:14:32 16 29 16.9
003A586A 2019-04-19 15:42:56 16 29 16.8
003A586A 2019-04-19 15:11:19 16 29 16.8
003A586A 2019-04-19 14:39:43 16 29 17
003A586A 2019-04-19 14:08:07 16 29 17
003A586A 2019-04-19 13:36:31 16 28 17.1
003A586A 2019-04-19 13:04:54 16 28 17.1
003A586A 2019-04-19 12:33:18 16 28 17
003A586A 2019-04-19 12:01:42 16.1 28 16.8
003A586A 2019-04-19 11:30:06 16 28 16.7
003A586A 2019-04-19 10:58:29 16 28 16.7
003A586A 2019-04-19 10:26:52 16.1 28 16.8
003A586A 2019-04-19 09:55:15 16 28 16.9
003A586A 2019-04-19 09:23:39 16.1 28 17
003A586A 2019-04-19 08:52:03 16.1 28 17.1
003A586A 2019-04-19 08:20:26 16.2 28 17.2
003A586A 2019-04-19 07:48:48 16.3 28 17.6
003A586A 2019-04-19 07:17:11 16.3 28 18
003A586A 2019-04-19 06:45:35 16.3 28 18.2
003A586A 2019-04-19 06:13:59 16.3 28 18.5
003A586A 2019-04-19 05:42:22 16.3 28 18.7
003A586A 2019-04-19 05:10:45 16.3 28 18.8
003A586A 2019-04-19 04:39:09 16.3 28 19.8
003A586A 2019-04-19 04:07:32 16.5 28 20.1
003A586A 2019-04-19 03:35:57 16.5 28 20.5
003A586A 2019-04-19 03:04:21 16.5 28 20.8
003A586A 2019-04-19 02:32:45 16.5 28 20.8
003A586A 2019-04-19 02:01:10 16.5 28 21.1
003A586A 2019-04-19 01:29:31 16.5 28 21.2
003A586A 2019-04-19 00:57:57 16.5 28 21.5
003A586A 2019-04-19 00:26:18 16.5 28 22
003A586A 2019-04-18 23:54:41 16.7 28 22
003A586A 2019-04-18 23:23:03 16.7 28 22.6
003A586A 2019-04-18 22:51:27 16.7 28 23.1
003A586A 2019-04-18 22:19:52 16.7 28 23.3
003A586A 2019-04-18 21:48:13 16.7 28 23.4
003A586A 2019-04-18 21:16:37 16.7 28 23.5
003A586A 2019-04-18 20:45:00 16.7 28 23.6
003A586A 2019-04-18 20:13:25 16.7 28 23.6
003A586A 2019-04-18 19:41:48 16.7 28 23.6
003A586A 2019-04-18 19:10:11 16.6 28 23.6
003A586A 2019-04-18 18:38:34 16.7 28 23.5
003A586A 2019-04-18 18:06:58 16.6 28 23.4
003A586A 2019-04-18 17:35:22 16.5 28 23.4
003A586A 2019-04-18 17:03:46 16.5 28 23.4
003A586A 2019-04-18 16:32:10 16.5 28 23.4
003A586A 2019-04-18 16:00:35 16.5 28 23.5
003A586A 2019-04-18 15:28:57 16.5 28 23.1
003A586A 2019-04-18 14:57:20 16.5 28 23
003A586A 2019-04-18 14:25:43 16.5 28 22.9
003A586A 2019-04-18 13:54:07 16.5 27 22.7
003A586A 2019-04-18 13:22:31 16.5 27 22.8
003A586A 2019-04-18 12:50:55 16.5 27 22.6
003A586A 2019-04-18 12:19:20 16.5 27 22.7
003A586A 2019-04-18 11:47:43 16.5 27 22.5
003A586A 2019-04-18 11:16:07 16.5 27 22.2
003A586A 2019-04-18 10:44:31 16.5 27 22.3
003A586A 2019-04-18 10:12:54 16.5 27 22
003A586A 2019-04-18 09:41:18 16.5 27 21.5
003A586A 2019-04-18 09:09:42 16.6 27 21.6
003A586A 2019-04-18 08:38:06 16.7 27 21.3
003A586A 2019-04-18 08:06:29 16.7 27 21.4
003A586A 2019-04-18 07:34:53 16.7 27 21.4
003A586A 2019-04-18 07:03:17 16.7 27 21.5
003A586A 2019-04-18 06:31:40 16.7 27 21.7
003A586A 2019-04-18 06:00:03 16.7 27 22.6
003A586A 2019-04-18 05:28:27 16.7 27 22.8
003A586A 2019-04-18 04:56:51 16.7 27 22.8
003A586A 2019-04-18 04:25:15 16.8 27 22.9
003A586A 2019-04-18 03:53:38 16.8 27 23
003A586A 2019-04-18 03:22:02 16.9 27 23.1
003A586A 2019-04-18 02:50:27 16.9 27 23.5
003A586A 2019-04-18 02:18:50 16.9 27 23.4
003A586A 2019-04-18 01:47:15 16.9 27 23.5
003A586A 2019-04-18 01:15:40 17 27 23.5
003A586A 2019-04-18 00:44:04 17.1 26 23.6
003A586A 2019-04-18 00:12:27 17.1 26 23.5
003A586A 2019-04-17 23:40:50 17.1 26 23.5
003A586A 2019-04-17 23:09:13 17.1 26 23.5
003A586A 2019-04-17 22:37:37 17.1 26 23.6
003A586A 2019-04-17 22:06:00 17.1 26 23.5
003A586A 2019-04-17 21:34:24 17.1 26 23.5
003A586A 2019-04-17 21:02:47 17.1 26 24.1
003A586A 2019-04-17 20:31:11 17.1 26 24.1
003A586A 2019-04-17 19:59:33 17.1 26 24
003A586A 2019-04-17 19:27:59 17.1 26 23.9
003A586A 2019-04-17 18:56:20 17.1 26 23.8
003A586A 2019-04-17 18:24:44 17.1 26 23.8
003A586A 2019-04-17 17:53:08 17.3 26 23.8
003A586A 2019-04-17 17:21:33 17.3 25 23.2
003A586A 2019-04-17 16:49:57 17.3 25 23.2
003A586A 2019-04-17 16:18:20 17.3 25 23.1
003A586A 2019-04-17 15:46:48 17.3 25 23.1
003A586A 2019-04-17 15:15:08 17.3 25 23
003A586A 2019-04-17 14:43:32 17.4 25 22.9
003A586A 2019-04-17 14:11:56 17.4 25 22.5
003A586A 2019-04-17 13:40:20 17.5 25 22.6
003A586A 2019-04-17 13:08:45 17.5 25 22.6
003A586A 2019-04-17 12:37:09 17.5 25 22.5
003A586A 2019-04-17 12:05:33 17.5 25 22.5
003A586A 2019-04-17 11:33:57 17.6 25 22.4
003A586A 2019-04-17 11:02:23 17.8 25 22.4
003A586A 2019-04-17 10:30:47 17.8 25 22.2
003A586A 2019-04-17 09:59:11 17.9 25 21.9
003A586A 2019-04-17 09:27:35 18 24 21.8
003A586A 2019-04-17 08:56:00 18.1 24 21.6
003A586A 2019-04-17 08:24:25 18.2 24 20.3
003A586A 2019-04-17 07:52:50 18.2 25 19.9
003A586A 2019-04-17 07:21:15 18.4 25 19.8
003A586A 2019-04-17 06:49:39 18.4 25 19.6
003A586A 2019-04-17 06:18:04 18.4 24 20
003A586A 2019-04-17 05:46:30 18.5 24 20.1
003A586A 2019-04-17 05:14:54 18.6 24 20.1
003A586A 2019-04-17 04:43:19 18.6 24 19.7
003A586A 2019-04-17 04:11:44 18.6 24 19.4
003A586A 2019-04-17 03:40:08 18.8 24 19.1
003A586A 2019-04-17 03:08:33 18.8 24 18.8
003A586A 2019-04-17 02:36:57 18.8 24 18.5
003A586A 2019-04-17 02:05:22 18.8 24 18.2
003A586A 2019-04-17 01:33:47 19 24 17.9
003A586A 2019-04-17 01:02:12 19 24 17.6
003A586A 2019-04-17 00:30:37 19 24 17.2
003A586A 2019-04-16 23:59:01 19.1 24 16.8
003A586A 2019-04-16 23:27:26 19.2 23 16.3
003A586A 2019-04-16 22:55:52 19.4 23 15.9
003A586A 2019-04-16 22:24:17 19.5 23 15.9
003A586A 2019-04-16 21:52:44 19.7 23 15.9
003A586A 2019-04-16 21:21:09 19.7 23 15.9
003A586A 2019-04-16 20:49:34 19.9 23 15.9
003A586A 2019-04-16 20:17:59 19.9 23 15.8
003A586A 2019-04-16 19:46:25 19.9 23 15.7
003A586A 2019-04-16 19:14:50 20.1 23 15.7
003A586A 2019-04-16 18:43:15 20.1 23 15.6
003A586A 2019-04-16 18:11:41 20.2 23 15.6
003A586A 2019-04-16 17:40:06 20.3 23 15.7
003A586A 2019-04-16 16:05:20 20.6 23 14
003A586A 2019-04-16 15:33:45 20.7 23 13.1
003A586A 2019-04-16 15:02:10 20.9 23 11.7
003A586A 2019-04-16 13:59:00 21.1 24 12
003A586A 2019-04-16 13:27:26 21.1 24 11.8
003A586A 2019-04-16 12:55:53 21 24 17.4
003A586A 2019-04-16 12:24:22 21 24 17.5
003A586A 2019-04-16 11:52:49 20.9 24 17.6
003A586A 2019-04-16 11:21:16 20.7 24 17.5
003A586A 2019-04-16 10:49:40 20.7 24 17.6
003A586A 2019-04-16 10:18:03 20.7 24 17.4
003A586A 2019-04-16 09:46:29 20.7 24 17.4
003A586A 2019-04-16 09:14:54 20.7 24 17.3
003A586A 2019-04-16 08:43:18 20.7 24 17.3
003A586A 2019-04-16 08:11:42 20.7 24 17.4
003A586A 2019-04-16 07:40:08 20.7 24 17.5
003A586A 2019-04-16 07:08:33 20.7 24 17.5
003A586A 2019-04-16 06:36:58 20.7 24 17.5
003A586A 2019-04-16 06:05:23 20.7 24 17.8
003A586A 2019-04-16 05:33:52 20.7 24 18.6
003A586A 2019-04-16 05:02:18 20.7 24 19.2
003A586A 2019-04-16 04:30:40 20.7 24 19.7
003A586A 2019-04-16 03:59:05 20.7 23 21
003A586A 2019-04-16 03:27:31 20.7 23 21.7
003A586A 2019-04-16 02:55:56 20.7 23 22.5
003A586A 2019-04-16 02:24:21 20.7 23 22.8
003A586A 2019-04-16 01:52:47 20.7 23 23.2
003A586A 2019-04-16 01:21:10 20.8 23 23.7
003A586A 2019-04-16 00:49:36 20.8 23 24.1
003A586A 2019-04-16 00:18:02 20.8 23 24.5
003A586A 2019-04-15 23:46:28 20.9 23 24.2
003A586A 2019-04-15 23:14:55 21 23 24.4
003A586A 2019-04-15 22:43:19 20.9 23 24.7
003A586A 2019-04-15 22:11:43 21 22 25
003A586A 2019-04-15 21:40:11 21 22 25.2
003A586A 2019-04-15 21:08:36 21 22 25.4
003A586A 2019-04-15 20:37:00 21 22 25.6
003A586A 2019-04-15 20:05:24 21.1 22 25.9
003A586A 2019-04-15 19:33:52 21.2 22 26.2
003A586A 2019-04-15 16:55:55 21.4 20 26.4
003A586A 2019-04-15 14:49:37 21.8 19 26.8
003A586A 2019-04-15 13:14:56 22.2 18 27.1
003A586A 2019-04-15 12:43:21 22.3 17 27.4
003A586A 2019-04-15 12:11:47 22.7 17 27.7
003A586A 2019-04-15 11:40:15 22.7 16 27.8
003A586A 2019-04-15 11:08:42 22.7 16 27.8
003A586A 2019-04-15 10:37:08 22.6 16 27.8
003A586A 2019-04-15 10:05:35 22.5 16 27.7
003A586A 2019-04-15 09:34:01 22.5 16 27.7
003A586A 2019-04-15 09:02:27 22.4 16 27.7
003A586A 2019-04-15 08:30:53 22.2 16 27.7
003A586A 2019-04-15 07:59:20 22.2 16 27.7
003A586A 2019-04-15 07:27:46 22.1 16 27.7
003A586A 2019-04-15 06:56:11 22 16 27.7
003A586A 2019-04-15 06:24:37 22 17 27.6
003A586A 2019-04-15 05:53:02 22 17 27.7
003A586A 2019-04-15 05:21:28 22 17 27.7
003A586A 2019-04-15 04:49:54 22 17 27.6
003A586A 2019-04-15 04:18:20 22 17 27.6
003A586A 2019-04-15 03:46:46 22 17 27.5
003A586A 2019-04-15 03:15:13 22 17 27.5
003A586A 2019-04-15 02:43:39 22 17 27.6
003A586A 2019-04-15 02:12:05 22 17 27.5
003A586A 2019-04-15 01:40:31 22 17 27.4
003A586A 2019-04-15 01:08:58 22 17 27.4
003A586A 2019-04-15 00:37:24 22 17 27.3
003A586A 2019-04-15 00:05:50 22 17 27.1
003A586A 2019-04-14 23:34:17 22 17 27
003A586A 2019-04-14 23:02:43 22 17 27
003A586A 2019-04-14 22:31:09 22 17 27.1
003A586A 2019-04-14 21:59:35 22 17 27.2
003A586A 2019-04-14 21:28:02 22.1 18 27.3
003A586A 2019-04-14 20:56:29 22.2 18 27.3
003A586A 2019-04-14 20:24:54 22.2 18 27.3
003A586A 2019-04-14 19:53:20 22.2 18 27.3
003A586A 2019-04-14 19:21:47 22.2 18 27.3
003A586A 2019-04-14 18:50:14 22.2 17 27.4
003A586A 2019-04-14 18:18:41 22.2 17 27.2
003A586A 2019-04-14 17:47:08 22.1 17 27.2
003A586A 2019-04-14 17:15:35 22.1 17 27.2
003A586A 2019-04-14 16:44:01 22 17 27.2
003A586A 2019-04-14 16:12:28 22.1 17 27.2
003A586A 2019-04-14 15:40:55 22.1 17 27.2
003A586A 2019-04-14 15:09:22 22.1 17 27.1
003A586A 2019-04-14 14:37:48 22.1 18 27.2
003A586A 2019-04-14 14:06:14 22 18 27.3
003A586A 2019-04-14 13:34:41 22.2 18 27.2
003A586A 2019-04-14 13:03:07 22.2 18 27.2
003A586A 2019-04-14 12:31:33 22.2 18 27.3
003A586A 2019-04-14 12:00:00 22.1 18 27.2
003A586A 2019-04-14 11:28:25 22.1 18 27.2
003A586A 2019-04-14 10:56:51 22.1 18 27.3
003A586A 2019-04-14 10:25:17 22.1 18 27.2
003A586A 2019-04-14 09:53:42 22.1 18 27
003A586A 2019-04-14 09:22:08 22 18 26.9
003A586A 2019-04-14 08:50:33 22 18 26.9
003A586A 2019-04-14 08:18:59 22 18 26.8
003A586A 2019-04-14 07:47:25 22 17 26.8
003A586A 2019-04-14 07:15:52 22.1 17 26.8
003A586A 2019-04-14 06:44:19 22 17 26.9
003A586A 2019-04-14 06:12:45 22 17 26.8
003A586A 2019-04-14 05:41:09 22 17 26.8
003A586A 2019-04-14 05:09:34 22 17 27
003A586A 2019-04-14 04:37:59 22 17 27.2
003A586A 2019-04-14 04:06:24 22 17 27.3
003A586A 2019-04-14 03:34:49 22.2 17 27.3
003A586A 2019-04-14 03:03:13 22.2 17 27.3
003A586A 2019-04-14 02:31:39 22.2 17 27.3
003A586A 2019-04-14 02:00:05 22.2 17 27.4
003A586A 2019-04-14 01:28:31 22.2 17 27.3
003A586A 2019-04-14 00:56:57 22.2 17 27.3
003A586A 2019-04-14 00:25:22 22.2 17 27.3
003A586A 2019-04-13 23:53:47 22.2 17 27.3
003A586A 2019-04-13 23:22:12 22.2 17 27.4
003A586A 2019-04-13 22:50:38 22.2 17 27.5
003A586A 2019-04-13 22:19:04 22.2 17 27.4
003A586A 2019-04-13 21:47:30 22.2 17 27.4
003A586A 2019-04-13 21:15:54 22.2 17 27.6
003A586A 2019-04-13 20:44:19 22.2 17 27.6
003A586A 2019-04-13 20:12:45 22.3 17 27.5
003A586A 2019-04-13 19:41:11 22.3 17 27.6
003A586A 2019-04-13 19:09:35 22.4 17 27.7
003A586A 2019-04-13 18:38:02 22.4 17 27.8
003A586A 2019-04-13 18:06:30 22.5 17 27.7
003A586A 2019-04-13 17:34:55 22.5 17 27.6
003A586A 2019-04-13 17:03:22 22.5 17 27.6
003A586A 2019-04-13 16:31:48 22.5 17 27.6
003A586A 2019-04-13 16:00:15 22.5 17 27.5
003A586A 2019-04-13 15:28:42 22.5 17 27.4
003A586A 2019-04-13 14:57:08 22.5 17 27.3
003A586A 2019-04-13 14:25:35 22.5 17 27.2
003A586A 2019-04-13 13:54:03 22.5 17 27.4
003A586A 2019-04-13 13:22:30 22.5 17 27.4
003A586A 2019-04-13 12:50:57 22.5 17 27.4
003A586A 2019-04-13 12:19:25 22.6 17 27.5
003A586A 2019-04-13 11:47:50 22.6 17 27.5
003A586A 2019-04-13 11:16:17 22.6 17 27.5
003A586A 2019-04-13 10:44:46 22.5 17 27.4
003A586A 2019-04-13 10:13:11 22.5 17 27.4
003A586A 2019-04-13 09:41:37 22.5 17 27.3
003A586A 2019-04-13 09:10:05 22.5 17 27.3
003A586A 2019-04-13 08:38:32 22.5 17 27.2
003A586A 2019-04-13 08:06:59 22.5 17 27.1
003A586A 2019-04-13 07:35:27 22.5 17 27.1
003A586A 2019-04-13 07:03:55 22.5 17 27.3
003A586A 2019-04-13 06:32:21 22.5 17 27.2
003A586A 2019-04-13 06:00:48 22.5 17 27
003A586A 2019-04-13 05:29:15 22.5 17 27.2
003A586A 2019-04-13 04:57:42 22.5 17 27.2
003A586A 2019-04-13 04:26:08 22.5 17 27.3
003A586A 2019-04-13 03:54:33 22.5 17 27.3
003A586A 2019-04-13 03:22:59 22.6 17 27.3
003A586A 2019-04-13 02:51:24 22.7 17 27.4
003A586A 2019-04-13 02:19:50 22.6 17 27.4
003A586A 2019-04-13 01:48:16 22.7 17 27.2
003A586A 2019-04-13 01:16:42 22.7 17 27.3
003A586A 2019-04-13 00:45:07 22.7 17 27.1
003A586A 2019-04-13 00:13:33 22.7 17 27.1
003A586A 2019-04-12 23:41:59 22.7 17 27.2
003A586A 2019-04-12 23:10:25 22.8 18 27.2
003A586A 2019-04-12 22:38:51 22.9 18 27.3
003A586A 2019-04-12 22:07:17 22.9 18 27.3
003A586A 2019-04-12 21:35:44 22.9 18 27.4
003A586A 2019-04-12 21:04:12 23 18 27.3
003A586A 2019-04-12 20:32:39 23.1 17 27.5
003A586A 2019-04-12 20:01:06 22.9 17 27.7
003A586A 2019-04-12 19:29:31 23 17 27.7
003A586A 2019-04-12 18:57:58 23.1 17 27.7
003A586A 2019-04-12 18:26:25 23.1 16 27.8
003A586A 2019-04-12 17:54:52 23.3 16 27.5
003A586A 2019-04-12 17:23:19 23.4 17 27.5
003A586A 2019-04-12 16:51:45 23.4 17 27.7
003A586A 2019-04-12 16:20:11 23.5 18 27.2
003A586A 2019-04-12 15:48:38 23.5 18 27.4
003A586A 2019-04-12 15:17:03 23.4 18 26.8
003A586A 2019-04-12 14:45:30 23.2 18 27
003A586A 2019-04-12 14:13:55 23 19 26.7
003A586A 2019-04-12 13:42:21 22.5 19 23.1
003A586A 2019-04-12 13:10:47 21.4 21 15.3